Regional Weather Roundup
Issued by NWS Midland/Odessa, TX

Skip options and go directly to product.
Home | Oldest Version | Previous Version | Current Version | All | Text Only | Save Text | Print | Product List | Glossary On

Skip product version selection by date and time.   
205
ASUS44 KMAF 301810
RWRMAF
MIDLAND AREA WEATHER ROUNDUP
NATIONAL WEATHER SERVICE MIDLAND TX
100 PM CDT SAT MAY 30 2015

...IN SOUTHWEST TEXAS AND SOUTHEAST NEW MEXICO...

CITY           SKY/WX    TMP DP  RH WIND       PRES   REMARKS
ALPINE         SUNNY     78  47  33 E12       30.28F
ANDREWS        PTSUNNY   69  59  70 MISG      30.22S
ARTESIA          N/A     70  57  64 N10G18    30.25F
BIG SPRING     PTSUNNY   74  60  62 NE15      30.21R
CARLSBAD       MOSUNNY   75  53  46 CALM      30.20F
DRYDEN           N/A     73  59  61 E9        30.14S
FORT STOCKTON  MOSUNNY   72  57  59 NW16      30.18S
GUAD PASS      SUNNY     69  49  48 E20G28    30.29F
HOBBS          PTSUNNY   68  57  68 N14       30.25F
MARFA          SUNNY     75  50  41 E8G17     30.26F
MIDLAND AIRPK  PTSUNNY   73  60  62 NE14      30.21R
MIDLAND INTL   MOSUNNY   73  57  57 N12       30.19R
ODESSA         MOSUNNY   73  57  57 NE13      30.20S
PECOS          MOSUNNY   73  56  55 CALM      30.18F
PRESIDIO       FAIR      84  51  31 NE16      30.12F
SEMINOLE       MOSUNNY   70  59  66 NE13      30.23F
SNYDER         CLOUDY    66  59  77 NE17G23   30.20F
WINK           PTSUNNY   75  55  49 N7        30.17F
$$
...OTHER STATIONS IN TEXAS...

CITY           SKY/WX    TMP DP  RH WIND       PRES   REMARKS
ABILENE        CLOUDY    69  61  75 N15       30.17S
AMARILLO       MOSUNNY   63  50  62 N15G24    30.29F
AUSTIN         PTSUNNY   84  68  58 CALM      30.04S
BROWNSVILLE    PTSUNNY   88  76  67 SE16      30.00F
CORPUS CHRISTI PTSUNNY   87  74  64 E14G20    30.00F
DALLAS FTW     CLOUDY    70  66  87 N10       30.08S
DEL RIO          N/A    N/A N/A N/A MISG      30.09F
EL PASO        MOSUNNY   81  48  31 E20       30.17S
HOUSTON INT    PTSUNNY   88  72  58 E5        29.99F
LUBBOCK        PTSUNNY   70  58  65 NE15      30.23F
SAN ANGELO     CLOUDY    69  61  75 S6        30.17S
SAN ANTONIO    MOSUNNY   86  70  58 S7        30.05S
WACO           MOSUNNY   79  66  64 N10       30.08R
WICHITA FALLS  NOT AVBL
$$
...OTHER LOCATIONS IN NEW MEXICO...

CITY           SKY/WX    TMP DP  RH WIND       PRES   REMARKS
ALAMAGORDO     SUNNY     79  45  29 NE3       30.19F
ALBUQUERQUE    MOSUNNY   71  42  35 CALM      30.29S
CANNON AFB     SUNNY     64  54  70 NE14G21   30.28F
CLOVIS         SUNNY     64  54  68 NE17      30.27F
HOLLOMAN AFB   SUNNY     81  46  29 VRB3      30.17F
ROSWELL        PTSUNNY   70  54  56 N6        30.25F
RUIDOSO        SUNNY     59  46  63 E9        30.39F
SANTA FE       MOSUNNY   67  42  40 S13       30.34F
TRUTH OR CONSE SUNNY     76  45  33 VRB5      30.22F
TUCUMCARI      PTSUNNY   63  50  62 NE6       30.29F
$$

USA.gov is the U.S. government's official web portal to all federal, state and local government web resources and services.